H1 CPF 2 NER 2024 6 10 9 162 01 glonass140 H2 1903001 9140 44299 2024 6 10 0 0 0 2024 6 13 23 45 0 900 1 1 0 0 0 1 H9 10 0 60471 0.00000 0 -13768116.432 18791072.325 10432659.567 10 0 60471 900.00000 0 -14485439.583 19635180.453 7482326.988 10 0 60471 1800.00000 0 -14887478.823 20255994.180 4386872.442 10 0 60471 2700.00000 0 -15000625.808 20604257.625 1206300.476 10 0 60471 3600.00000 0 -14861566.781 20638971.329 -1997683.157 10 0 60471 4500.00000 0 -14515528.459 20329261.016 -5162866.067 10 0 60471 5400.00000 0 -14014174.222 19655840.670 -8227737.729 10 0 60471 6300.00000 0 -13413239.244 18612006.595 -11132688.222 10 0 60471 7200.00000 0 -12770004.581 17204118.667 -13821173.346 10 0 60471 8100.00000 0 -12140717.273 15451546.396 -16240822.789 10 0 60471 9000.00000 0 -11578066.176 13386080.031 -18344469.000 10 0 60471 9900.00000 0 -11128821.042 11050829.506 -20091075.877 10 0 60471 10800.00000 0 -10831735.647 8498655.753 -21446548.439 10 0 60471 11700.00000 0 -10715804.674 5790198.768 -22384406.947 10 0 60471 12600.00000 0 -10798949.096 2991583.949 -22886311.726 10 0 60471 13500.00000 0 -11087186.604 171901.971 -22942427.900 10 0 60471 14400.00000 0 -11574323.014 -2599432.943 -22551622.502 10 0 60471 15300.00000 0 -12242178.358 -5255336.182 -21721489.759 10 0 60471 16200.00000 0 -13061338.568 -7733606.650 -20468203.829 10 0 60471 17100.00000 0 -13992401.169 -9979274.891 -18816201.731 10 0 60471 18000.00000 0 -14987662.280 -11946647.511 -16797702.671 10 0 60471 18900.00000 0 -15993173.244 -13600962.884 -14452073.351 10 0 60471 19800.00000 0 -16951079.434 -14919589.627 -11825051.998 10 0 60471 20700.00000 0 -17802141.561 -15892718.712 -8967846.874 10 0 60471 21600.00000 0 -18488332.087 -16523521.711 -5936127.637 10 0 60471 22500.00000 0 -18955396.151 -16827770.380 -2788930.149 10 0 60471 23400.00000 0 -19155268.034 -16832935.659 412502.827 10 0 60471 24300.00000 0 -19048240.556 -16576806.299 3605921.416 10 0 60471 25200.00000 0 -18604795.545 -16105687.529 6729284.618 10 0 60471 26100.00000 0 -17807018.173 -15472257.733 9721968.050 10 0 60471 27000.00000 0 -16649535.822 -14733175.234 12525939.553 10 0 60471 27900.00000 0 -15139942.426 -13946537.273 15086879.818 10 0 60471 28800.00000 0 -13298690.966 -13169298.952 17355226.626 10 0 60471 29700.00000 0 -11158459.052 -12454760.943 19287123.271 10 0 60471 30600.00000 0 -8763014.368 -11850231.198 20845253.956 10 0 60471 31500.00000 0 -6165627.254 -11394958.140 21999551.336 10 0 60471 32400.00000 0 -3427096.108 -11118420.952 22727764.060 10 0 60471 33300.00000 0 -613466.767 -11039047.489 23015874.777 10 0 60471 34200.00000 0 2206460.675 -11163412.423 22858361.789 10 0 60471 35100.00000 0 4963735.910 -11485948.350 22258300.248 10 0 60471 36000.00000 0 7591867.262 -11989181.465 21227301.430 10 0 60471 36900.00000 0 10029329.150 -12644481.917 19785291.326 10 0 60471 37800.00000 0 12221866.199 -13413297.822 17960132.383 10 0 60471 38700.00000 0 14124500.089 -14248822.048 15787094.885 10 0 60471 39600.00000 0 15703157.203 -15098022.924 13308187.021 10 0 60471 40500.00000 0 16935850.388 -15903954.808 10571355.275 10 0 60471 41400.00000 0 17813366.220 -16608252.571 7629569.209 10 0 60471 42300.00000 0 18339429.279 -17153705.895 4539807.085 10 0 60471 43200.00000 0 18530336.533 -17486805.510 1361960.901 10 0 60471 44100.00000 0 18414076.819 -17560154.061 -1842318.743 10 0 60471 45000.00000 0 18028972.040 -17334639.406 -5010815.946 10 0 60471 45900.00000 0 17421896.807 -16781277.613 -8081957.884 10 0 60471 46800.00000 0 16646151.253 -15882646.350 -10996014.608 10 0 60471 47700.00000 0 15759076.598 -14633846.357 -13696266.378 10 0 60471 48600.00000 0 14819514.204 -13042948.288 -16130115.159 10 0 60471 49500.00000 0 13885215.731 -11130903.914 -18250117.886 10 0 60471 50400.00000 0 13010314.332 -8930923.211 -20014920.520 10 0 60471 51300.00000 0 12242964.360 -6487341.521 -21390073.908 10 0 60471 52200.00000 0 11623250.092 -3854022.555 -22348714.862 10 0 60471 53100.00000 0 11181452.546 -1092362.771 -22872098.496 10 0 60471 54000.00000 0 10936748.338 1731020.387 -22949970.939 10 0 60471 54900.00000 0 10896396.108 4546820.453 -22580774.696 10 0 60471 55800.00000 0 11055445.307 7285688.686 -21771682.307 10 0 60471 56700.00000 0 11396979.840 9880885.253 -20538457.402 10 0 60471 57600.00000 0 11892886.213 12270824.206 -18905145.731 10 0 60471 58500.00000 0 12505113.410 14401405.999 -16903602.206 10 0 60471 59400.00000 0 13187370.676 16228040.251 -14572863.370 10 0 60471 60300.00000 0 13887190.615 17717274.583 -11958377.911 10 0 60471 61200.00000 0 14548269.367 18847962.062 -9111110.820 10 0 60471 62100.00000 0 15112983.780 19611919.434 -6086539.481 10 0 60471 63000.00000 0 15524978.034 20014050.052 -2943562.170 10 0 60471 63900.00000 0 15731709.258 20071928.114 256658.648 10 0 60471 64800.00000 0 15686843.715 19814863.812 3451894.667 10 0 60471 65700.00000 0 15352401.716 19282490.857 6580067.444 10 0 60471 66600.00000 0 14700560.404 18522937.943 9580457.043 10 0 60471 67500.00000 0 13715038.381 17590662.976 12394879.686 10 0 60471 68400.00000 0 12392004.066 16544042.711 14968811.503 10 0 60471 69300.00000 0 10740469.932 15442820.143 17252436.917 10 0 60471 70200.00000 0 8782156.416 14345517.355 19201602.108 10 0 60471 71100.00000 0 6550831.373 13306922.296 20778656.240 10 0 60471 72000.00000 0 4091152.654 12375754.239 21953165.514 10 0 60471 72900.00000 0 1457061.649 11592604.682 22702487.743 10 0 60471 73800.00000 0 -1290206.174 10988238.561 23012197.807 10 0 60471 74700.00000 0 -4084412.235 10582325.504 22876357.029 10 0 60471 75600.00000 0 -6856813.821 10382652.888 22297622.232 10 0 60471 76500.00000 0 -9538769.285 10384852.635 21287192.900 10 0 60471 77400.00000 0 -12064343.381 10572652.547 19864597.549 10 0 60471 78300.00000 0 -14372806.667 10918641.508 18057323.007 10 0 60471 79200.00000 0 -16410927.053 11385516.761 15900292.964 10 0 60471 80100.00000 0 -18134959.768 11927761.601 13435204.727 10 0 60471 81000.00000 0 -19512254.109 12493683.903 10709735.669 10 0 60471 81900.00000 0 -20522410.679 13027730.766 7776633.326 10 0 60471 82800.00000 0 -21157941.092 13472982.675 4692705.460 10 0 60471 83700.00000 0 -21424402.422 13773722.690 1517728.568 10 0 60471 84600.00000 0 -21340000.388 13877972.474 -1686704.831 10 0 60471 85500.00000 0 -20934677.361 13739887.818 -4858378.201 10 0 60472 0.00000 0 -20248722.996 13321911.746 -7935658.950 10 0 60472 900.00000 0 -19330965.003 12596592.669 -10858700.343 10 0 60472 1800.00000 0 -18236616.866 11547989.695 -13570609.336 10 0 60472 2700.00000 0 -17024871.829 10172603.010 -16018562.464 10 0 60472 3600.00000 0 -15756345.505 8479788.307 -18154843.152 10 0 60472 4500.00000 0 -14490474.952 6491635.356 -19937781.062 10 0 60472 5400.00000 0 -13282984.373 4242313.636 -21332574.116 10 0 60472 6300.00000 0 -12183524.860 1776910.468 -22311976.482 10 0 60472 7200.00000 0 -11233588.314 -850191.294 -22856838.428 10 0 60472 8100.00000 0 -10464783.991 -3577329.417 -22956487.002 10 0 60472 9000.00000 0 -9897550.766 -6337888.928 -22608939.660 10 0 60472 9900.00000 0 -9540359.624 -9062842.529 -21820946.308 10 0 60472 10800.00000 0 -9389440.028 -11683398.954 -20607858.718 10 0 60472 11700.00000 0 -9429041.394 -14133648.742 -18993329.683 10 0 60472 12600.00000 0 -9632218.120 -16353096.800 -17008847.844 10 0 60472 13500.00000 0 -9962104.189 -18288975.915 -14693117.387 10 0 60472 14400.00000 0 -10373622.399 -19898244.566 -12091295.115 10 0 60472 15300.00000 0 -10815554.759 -21149185.756 -9254100.346 10 0 60472 16200.00000 0 -11232885.089 -22022540.585 -6236815.778 10 0 60472 17100.00000 0 -11569313.343 -22512130.088 -3098199.747 10 0 60472 18000.00000 0 -11769833.972 -22624940.672 100667.877 10 0 60472 18900.00000 0 -11783268.118 -22380671.311 3297582.572 10 0 60472 19800.00000 0 -11564641.675 -21810763.509 6430430.619 10 0 60472 20700.00000 0 -11077308.173 -20956956.784 9438398.640 10 0 60472 21600.00000 0 -10294726.600 -19869432.358 12263153.287 10 0 60472 22500.00000 0 -9201819.233 -18604624.614 14849968.100 10 0 60472 23400.00000 0 -7795852.503 -17222793.507 17148775.984 10 0 60472 24300.00000 0 -6086804.185 -15785460.406 19115127.665 10 0 60472 25200.00000 0 -4097201.675 -14352814.970 20711038.707 10 0 60472 26100.00000 0 -1861438.147 -12981201.165 21905710.025 10 0 60472 27000.00000 0 575405.182 -11720786.611 22676109.467 10 0 60472 27900.00000 0 3159182.295 -10613511.341 23007404.714 10 0 60472 28800.00000 0 5828684.673 -9691400.097 22893240.373 10 0 60472 29700.00000 0 8517940.891 -8975307.104 22335854.924 10 0 60472 30600.00000 0 11158719.871 -8474144.284 21346035.788 10 0 60472 31500.00000 0 13683135.742 -8184624.080 19942913.478 10 0 60472 32400.00000 0 16026248.245 -8091526.899 18153598.431 10 0 60472 33300.00000 0 18128552.481 -8168481.731 16012666.722 10 0 60472 34200.00000 0 19938256.118 -8379227.355 13561503.481 10 0 60472 35100.00000 0 21413250.470 -8679301.709 10847515.370 10 0 60472 36000.00000 0 22522694.057 -9018089.093 7923225.973 10 0 60472 36900.00000 0 23248142.840 -9341139.757 4845270.297 10 0 60472 37800.00000 0 23584179.720 -9592664.710 1673306.787 10 0 60472 38700.00000 0 23538516.489 -9718100.801 -1531132.920 10 0 60472 39600.00000 0 23131563.234 -9666637.648 -4705834.603 10 0 60472 40500.00000 0 22395482.476 -9393599.077 -7789109.453 10 0 60472 41400.00000 0 21372767.008 -8862577.368 -10720995.790 10 0 60472 42300.00000 0 20114400.587 -8047228.608 -13444430.646 10 0 60472 43200.00000 0 18677678.450 -6932651.412 -15906367.739 10 0 60472 44100.00000 0 17123779.157 -5516288.658 -18058819.347 10 0 60472 45000.00000 0 15515190.023 -3808311.921 -19859800.914 10 0 60472 45900.00000 0 13913094.740 -1831470.100 -21274159.209 10 0 60472 46800.00000 0 12374833.478 379593.561 -22274267.196 10 0 60472 47700.00000 0 10951542.814 2779529.315 -22840571.371 10 0 60472 48600.00000 0 9686075.168 5313925.400 -22961980.396 10 0 60472 49500.00000 0 8611285.568 7921341.521 -22636086.966 10 0 60472 50400.00000 0 7748757.981 10535647.037 -21869218.240 10 0 60472 51300.00000 0 7108024.654 13088566.514 -20676313.603 10 0 60472 52200.00000 0 6686310.948 15512326.387 -19080631.983 10 0 60472 53100.00000 0 6468815.703 17742291.985 -17113294.443 10 0 60472 54000.00000 0 6429514.275 19719484.450 -14812671.147 10 0 60472 54900.00000 0 6532449.121 21392872.158 -12223625.001 10 0 60472 55800.00000 0 6733451.887 22721340.624 -9396627.299 10 0 60472 56700.00000 0 6982222.617 23675258.696 -6386763.424 10 0 60472 57600.00000 0 7224676.480 24237575.939 -3252648.883 10 0 60472 58500.00000 0 7405457.119 24404406.171 -55277.907 10 0 60472 59400.00000 0 7470508.860 24185073.985 3143171.915 10 0 60472 60300.00000 0 7369597.794 23601623.957 6280554.716 10 0 60472 61200.00000 0 7058674.283 22687814.935 9295966.714 10 0 60472 62100.00000 0 6501976.598 21487643.461 12130927.862 10 0 60472 63000.00000 0 5673786.715 20053459.929 14730511.756 10 0 60472 63900.00000 0 4559764.396 18443757.825 17044402.166 10 0 60472 64800.00000 0 3157803.638 16720729.529 19027856.472 10 0 60472 65700.00000 0 1478375.738 14947691.294 20642558.438 10 0 60472 66600.00000 0 -455655.250 13186484.799 21857345.171 10 0 60472 67500.00000 0 -2609737.162 11494962.981 22648795.690 10 0 60472 68400.00000 0 -4938825.562 9924663.776 23001671.221 10 0 60472 69300.00000 0 -7389021.821 8518767.201 22909199.987 10 0 60472 70200.00000 0 -9899586.595 7310419.193 22373201.992 10 0 60472 71100.00000 0 -12405246.621 6321490.363 21404051.953 10 0 60472 72000.00000 0 -14838700.799 5561819.969 20020481.234 10 0 60472 72900.00000 0 -17133223.387 5028975.433 18249222.223 10 0 60472 73800.00000 0 -19225257.962 4708536.716 16124501.241 10 0 60472 74700.00000 0 -21056895.864 4574893.308 13687388.684 10 0 60472 75600.00000 0 -22578137.207 4592520.471 10985017.621 10 0 60472 76500.00000 0 -23748841.014 4717681.500 8069684.566 10 0 60472 77400.00000 0 -24540283.362 4900484.925 4997848.533 10 0 60472 78300.00000 0 -24936258.287 5087210.483 1829046.636 10 0 60472 79200.00000 0 -24933674.762 5222806.112 -1375253.608 10 0 60472 80100.00000 0 -24542623.913 5253450.561 -4552843.443 10 0 60472 81000.00000 0 -23785912.583 5129072.985 -7641980.587 10 0 60472 81900.00000 0 -22698081.810 4805722.178 -10582591.828 10 0 60472 82800.00000 0 -21323950.484 4247684.053 -13317446.638 10 0 60472 83700.00000 0 -19716744.616 3429256.198 -15793278.297 10 0 60472 84600.00000 0 -17935890.326 2336102.580 -17961829.972 10 0 60472 85500.00000 0 -16044563.049 966129.044 -19780804.506 10 0 60473 0.00000 0 -14107096.096 -670159.383 -21214698.538 10 0 60473 900.00000 0 -12186356.519 -2549837.600 -22235504.685 10 0 60473 1800.00000 0 -10341201.397 -4638268.177 -22823265.577 10 0 60473 2700.00000 0 -8624118.138 -6890312.706 -22966470.992 10 0 60473 3600.00000 0 -7079150.708 -9251995.252 -22662287.860 10 0 60473 4500.00000 0 -5740197.878 -11662550.022 -21916619.133 10 0 60473 5400.00000 0 -4629754.979 -14056767.984 -20743989.953 10 0 60473 6300.00000 0 -3758151.585 -16367544.474 -19167263.197 10 0 60473 7200.00000 0 -3123316.424 -18528521.077 -17217189.939 10 0 60473 8100.00000 0 -2711078.290 -20476710.952 -14931803.741 10 0 60473 9000.00000 0 -2495988.914 -22154997.323 -12355670.951 10 0 60473 9900.00000 0 -2442631.387 -23514400.169 -9539012.197 10 0 60473 10800.00000 0 -2507357.100 -24516015.972 -6536712.958 10 0 60473 11700.00000 0 -2640375.870 -25132549.352 -3407243.455 10 0 60473 12600.00000 0 -2788108.989 -25349372.793 -211509.953 10 0 60473 13500.00000 0 -2895703.971 -25165070.899 2988339.057 10 0 60473 14400.00000 0 -2909603.094 -24591447.520 6130127.598 10 0 60473 15300.00000 0 -2780056.009 -23652996.936 9152863.394 10 0 60473 16200.00000 0 -2463469.444 -22385862.900 11997921.487 10 0 60473 17100.00000 0 -1924494.423 -20836330.703 14610177.176 10 0 60473 18000.00000 0 -1137762.932 -19058916.814 16939066.600 10 0 60473 18900.00000 0 -89201.082 -17114137.010 18939555.092 10 0 60473 19800.00000 0 1223136.127 -15066046.752 20572995.698 10 0 60473 20700.00000 0 2788743.238 -12979656.450 21807862.529 10 0 60473 21600.00000 0 4584869.378 -10918328.766 22620346.308 10 0 60473 22500.00000 0 6577241.602 -8941265.199 22994802.061 10 0 60473 23400.00000 0 8721276.995 -7101185.091 22924041.597 10 0 60473 24300.00000 0 10963734.027 -5442291.828 22409466.152 10 0 60473 25200.00000 0 13244735.870 -3998608.970 21461037.228 10 0 60473 26100.00000 0 15500083.106 -2792753.860 20097086.305 10 0 60473 27000.00000 0 17663761.480 -1835198.236 18343966.797 10 0 60473 27900.00000 0 19670542.153 -1124045.550 16235554.146 10 0 60473 28800.00000 0 21458567.832 -645333.513 13812602.686 10 0 60473 29700.00000 0 22971818.326 -373848.889 11121970.331 10 0 60473 30600.00000 0 24162353.589 -274420.357 8215724.723 10 0 60473 31500.00000 0 24992240.913 -303635.398 5150146.812 10 0 60473 32400.00000 0 25435085.587 -411909.329 1984650.067 10 0 60473 33300.00000 0 25477100.347 -545819.574 -1219364.642 10 0 60473 34200.00000 0 25117667.819 -650606.820 -4399696.698 10 0 60473 35100.00000 0 24369371.183 -672737.196 -7494553.078 10 0 60473 36000.00000 0 23257490.435 -562416.623 -10443751.730 10 0 60473 36900.00000 0 21818984.141 -275950.057 -13189897.131 10 0 60473 37800.00000 0 20100998.285 222155.519 -15679504.498 10 0 60473 38700.00000 0 18158963.943 957434.925 -17864050.029 10 0 60473 39600.00000 0 16054363.008 1944131.570 -19700925.865 10 0 60473 40500.00000 0 13852255.367 3184345.562 -21154280.383 10 0 60473 41400.00000 0 11618671.153 4667701.177 -22195726.728 10 0 60473 42300.00000 0 9417977.473 6371549.691 -22804905.079 10 0 60473 43200.00000 0 7310330.157 8261700.875 -22969887.164 10 0 60473 44100.00000 0 5349317.431 10293653.945 -22687414.662 10 0 60473 45000.00000 0 3579894.371 12414277.409 -21962966.464 10 0 60473 45900.00000 0 2036694.530 14563868.133 -20810653.237 10 0 60473 46800.00000 0 742789.156 16678503.644 -19252941.177 10 0 60473 47700.00000 0 -291054.620 18692589.041 -17320210.318 10 0 60473 48600.00000 0 -1066586.577 20541491.494 -15050156.176 10 0 60473 49500.00000 0 -1597749.609 22164151.401 -12487046.723 10 0 60473 50400.00000 0 -1909834.700 23505560.173 -9680849.732 10 0 60473 51300.00000 0 -2038152.229 24519000.248 -6686248.297 10 0 60473 52200.00000 0 -2026277.788 25167953.085 -3561564.590 10 0 60473 53100.00000 0 -1923948.701 25427595.080 -367613.963 10 0 60473 54000.00000 0 -1784702.151 25285819.008 2833487.269 10 0 60473 54900.00000 0 -1663356.568 24743738.876 5979536.136 10 0 60473 55800.00000 0 -1613444.188 23815658.062 9009454.942 10 0 60473 56700.00000 0 -1684704.332 22528503.383 11864476.786 10 0 60473 57600.00000 0 -1920743.880 20920750.133 14489281.481 10 0 60473 58500.00000 0 -2356963.828 19040884.365 16833060.120 10 0 60473 59400.00000 0 -3018839.178 16945467.698 18850488.341 10 0 60473 60300.00000 0 -3920624.163 14696886.026 20502590.538 10 0 60473 61200.00000 0 -5064536.825 12360876.123 21757479.598 10 0 60473 62100.00000 0 -6440456.807 10003932.676 22590959.376 10 0 60473 63000.00000 0 -8026148.979 7690702.621 22986979.739 10 0 60473 63900.00000 0 -9788003.832 5481473.675 22937936.692 10 0 60473 64800.00000 0 -11682264.422 3429859.652 22444812.836 10 0 60473 65700.00000 0 -13656689.808 1580776.757 21517156.061 10 0 60473 66600.00000 0 -15652587.065 -31206.907 20172897.029 10 0 60473 67500.00000 0 -17607128.864 -1383081.775 18438008.673 10 0 60473 68400.00000 0 -19455861.804 -2464118.251 16346013.533 10 0 60473 69300.00000 0 -21135302.495 -3276070.133 13937347.365 10 0 60473 70200.00000 0 -22585514.528 -3832852.197 11258590.012 10 0 60473 71100.00000 0 -23752559.655 -4159705.762 8361577.008 10 0 60473 72000.00000 0 -24590721.235 -4291887.181 5302407.812 10 0 60473 72900.00000 0 -25064406.838 -4272934.169 2140368.700 10 0 60473 73800.00000 0 -25149649.766 -4152582.714 -1063209.657 10 0 60473 74700.00000 0 -24835145.530 -3984422.175 -4246138.281 10 0 60473 75600.00000 0 -24122778.464 -3823387.624 -7346576.783 10 0 60473 76500.00000 0 -23027614.823 -3723195.715 -10304237.483 10 0 60473 77400.00000 0 -21577361.121 -3733833.154 -13061562.856 10 0 60473 78300.00000 0 -19811308.915 -3899205.061 -15564852.752 10 0 60473 79200.00000 0 -17778809.064 -4255044.006 -17765318.735 10 0 60473 80100.00000 0 -15537338.426 -4827169.764 -19620044.114 10 0 60473 81000.00000 0 -13150239.357 -5630175.120 -21092830.219 10 0 60473 81900.00000 0 -10684226.241 -6666595.091 -22154911.696 10 0 60473 82800.00000 0 -8206763.321 -7926596.465 -22785526.196 10 0 60473 83700.00000 0 -5783423.529 -9388202.472 -22972326.828 10 0 60473 84600.00000 0 -3475338.867 -11018044.637 -22711628.845 10 0 60473 85500.00000 0 -1336849.060 -12772611.389 -22008485.381 10 0 60474 0.00000 0 586553.053 -14599941.583 -20876590.611 10 0 60474 900.00000 0 2259894.701 -16441693.264 -19338011.347 10 0 60474 1800.00000 0 3659942.880 -18235498.371 -17422753.920 10 0 60474 2700.00000 0 4775923.779 -19917507.463 -15168172.880 10 0 60474 3600.00000 0 5609710.425 -21425014.693 -12618234.795 10 0 60474 4500.00000 0 6175473.334 -22699053.042 -9822651.549 10 0 60474 5400.00000 0 6498810.652 -23686849.931 -6835900.837 10 0 60474 6300.00000 0 6615396.574 -24344039.503 -3716153.887 10 0 60474 7200.00000 0 6569207.304 -24636538.209 -524132.366 10 0 60474 8100.00000 0 6410401.677 -24542004.885 2678082.173 10 0 60474 9000.00000 0 6192947.981 -24050824.289 5828262.143 10 0 60474 9900.00000 0 5972099.000 -23166573.442 8865246.587 10 0 60474 10800.00000 0 5801823.276 -21905952.141 11730128.561 10 0 60474 11700.00000 0 5732301.884 -20298181.603 14367394.031 10 0 60474 12600.00000 0 5807596.751 -18383897.500 16725990.393 10 0 60474 13500.00000 0 6063588.728 -16213584.560 18760304.624 10 0 60474 14400.00000 0 6526271.850 -13845618.649 20431033.173 10 0 60474 15300.00000 0 7210474.945 -11343998.129 21705928.067 10 0 60474 16200.00000 0 8119063.660 -8775858.554 22560406.313 10 0 60474 17100.00000 0 9242655.979 -6208873.120 22978012.308 10 0 60474 18000.00000 0 10559862.990 -3708645.545 22950725.648 10 0 60474 18900.00000 0 12038045.101 -1336201.845 22479109.434 10 0 60474 19800.00000 0 13634552.818 854316.860 21572296.860 10 0 60474 20700.00000 0 15298401.357 2817666.706 20247816.499 10 0 60474 21600.00000 0 16972310.560 4519136.971 18531259.409 10 0 60474 22500.00000 0 18595026.584 5935743.124 16455793.695 10 0 60474 23400.00000 0 20103829.934 7056928.670 14061534.894 10 0 60474 24300.00000 0 21437126.464 7884747.453 11394783.016 10 0 60474 25200.00000 0 22537014.114 8433519.317 8507139.602 10 0 60474 26100.00000 0 23351718.529 8728973.708 5454520.587 10 0 60474 27000.00000 0 23837795.650 8806917.090 2296082.907 10 0 60474 27900.00000 0 23962008.491 8711479.966 -906915.229 10 0 60474 28800.00000 0 23702798.362 8493017.132 -4092298.796 10 0 60474 29700.00000 0 23051287.453 8205749.606 -7198182.360 10 0 60474 30600.00000 0 22011768.974 7905247.947 -10164174.853 10 0 60474 31500.00000 0 20601662.497 7645863.698 -12932558.844 10 0 60474 32400.00000 0 18850934.557 7478218.318 -15449420.745 10 0 60474 33300.00000 0 16801007.149 7446856.785 -17665709.191 10 0 60474 34200.00000 0 14503198.495 7588166.392 -19538200.171 10 0 60474 35100.00000 0 12016760.262 7928650.195 -21030349.288 10 0 60474 36000.00000 0 9406592.597 8483629.640 -22113013.835 10 0 60474 36900.00000 0 6740732.101 9256432.755 -22765029.906 10 0 60474 37800.00000 0 4087717.509 10238103.681 -22973632.768 10 0 60474 38700.00000 0 1513943.052 11407647.154 -22734711.790 10 0 60474 39600.00000 0 -918889.878 12732798.741 -22052894.601 10 0 60474 40500.00000 0 -3156116.345 14171289.192 -20941458.547 10 0 60474 41400.00000 0 -5152149.000 15672550.154 -19422071.003 10 0 60474 42300.00000 0 -6872131.736 17179789.523 -17524363.565 10 0 60474 43200.00000 0 -8293137.345 18632348.879 -15285348.558 10 0 60474 44100.00000 0 -9404860.096 19968243.252 -12748689.537 10 0 60474 45000.00000 0 -10209775.548 21126775.591 -9963840.550 10 0 60474 45900.00000 0 -10722762.703 22051115.073 -6985071.685 10 0 60474 46800.00000 0 -10970206.473 22690729.928 -3870400.778 10 0 60474 47700.00000 0 -10988620.486 23003571.738 -680453.206 10 0 60474 48600.00000 0 -10822850.650 22957918.878 2522726.974 10 0 60474 49500.00000 0 -10523937.454 22533801.517 5676890.370 10 0 60474 50400.00000 0 -10146729.246 21723948.478 8720795.601 10 0 60474 51300.00000 0 -9747348.818 20534216.791 11595398.503 10 0 60474 52200.00000 0 -9380621.341 18983486.631 14244993.943 10 0 60474 53100.00000 0 -9097572.751 17103026.897 16618288.268 10 0 60474 54000.00000 0 -8943104.092 14935358.711 18669382.282 10 0 60474 54900.00000 0 -8953939.398 12532664.808 20358646.774 10 0 60474 55800.00000 0 -9156932.729 9954811.292 21653474.943 10 0 60474 56700.00000 0 -9567804.683 7267063.812 22528898.679 10 0 60474 57600.00000 0 -10190360.610 4537592.281 22968058.287 10 0 60474 58500.00000 0 -11016222.709 1834866.492 22962517.915 10 0 60474 59400.00000 0 -12025086.988 -774950.955 22512421.657 10 0 60474 60300.00000 0 -13185494.535 -3230508.247 21626487.990 10 0 60474 61200.00000 0 -14456085.456 -5477562.636 20321842.846 10 0 60474 62100.00000 0 -15787284.066 -7470980.046 18623694.288 10 0 60474 63000.00000 0 -17123346.188 -9176354.745 16564854.335 10 0 60474 63900.00000 0 -18404684.316 -10571183.202 14185116.148 10 0 60474 64800.00000 0 -19570374.728 -11645544.327 11530497.304 10 0 60474 65700.00000 0 -20560742.699 -12402258.398 8652362.390 10 0 60474 66600.00000 0 -21319918.204 -12856518.322 5606440.580 10 0 60474 67500.00000 0 -21798255.193 -13035008.693 2451756.046 10 0 60474 68400.00000 0 -21954512.604 -12974549.432 -750508.992 10 0 60474 69300.00000 0 -21757704.664 -12720320.798 -3938197.022 10 0 60474 70200.00000 0 -21188541.439 -12323744.314 -7049381.097 10 0 60474 71100.00000 0 -20240397.377 -11840108.945 -10023570.209 10 0 60474 72000.00000 0 -18919765.223 -11326042.899 -12802890.323 10 0 60474 72900.00000 0 -17246174.201 -10836938.339 -15333217.475 10 0 60474 73800.00000 0 -15251573.912 -10424438.544 -17565240.133 10 0 60474 74700.00000 0 -12979207.991 -10134094.705 -19455429.296 10 0 60474 75600.00000 0 -10482023.197 -10003292.542 -20966896.656 10 0 60474 76500.00000 0 -7820679.301 -10059537.603 -22070123.359 10 0 60474 77400.00000 0 -5061242.162 -10319172.988 -22743544.497 10 0 60474 78300.00000 0 -2272655.835 -10786584.844 -22973977.366 10 0 60474 79200.00000 0 475901.040 -11453930.326 -22756884.691 10 0 60474 80100.00000 0 3117664.283 -12301400.390 -22096467.249 10 0 60474 81000.00000 0 5590828.141 -13298007.003 -21005583.843 10 0 60474 81900.00000 0 7840878.029 -14402861.945 -19505499.947 10 0 60474 82800.00000 0 9822614.777 -15566893.322 -17625469.911 10 0 60474 83700.00000 0 11501786.213 -16734927.121 -15402160.970 10 0 60474 84600.00000 0 12856258.566 -17848045.484 -12878930.571 10 0 60474 85500.00000 0 13876679.703 -18846121.439 -10104971.671 99